Regional Weather Roundup
Issued by NWS

Home | Current Version | Previous Version | Text Only | Print | Product List | Glossary Off
Versions: 1 2 3 4 5 6 7 8 9 10 11 12 13 14 15 16 17 18 19 20 21 22 23 24 25 26 27 28 29 30 31 32 33 34 35 36 37 38 39 40 41 42 43 44 45 46 47 48 49 50

000
ASUS43 KOAX 171002
RWRNE

WEATHER ROUNDUP FOR NEBRASKA
NATIONAL WEATHER SERVICE OMAHA NE
500 AM CDT TUE OCT 17 2017

NOTES: SATELLITE DATA IS BEING USED TO AUGMENT CLOUD COVER ABOVE
       12000 FEET.
       "FAIR" INDICATES FEW OR NO CLOUDS BELOW 12,000 FEET WITH NO
       SIGNIFICANT WEATHER AND/OR OBSTRUCTIONS TO VISIBILITY.


NEZ001>004-019>022-054>056-171100-
NEBRASKA PANHANDLE

CITY           SKY/WX    TMP DP  RH WIND       PRES   REMARKS
SCOTTSBLUFF    CLOUDY    30  25  81 NW5       30.17F WCI  25
ALLIANCE       CLOUDY    27  22  81 SW5       30.15F WCI  22
CHADRON        CLOUDY    30  23  75 SW3       30.12F
GORDON         FAIR      37  29  73 CALM      30.12S
SIDNEY         CLOUDY    32  24  72 NW9       30.19F WCI  24
$$

NEZ057>060-069>072-079>082-171100-
SOUTHWEST NEBRASKA

CITY           SKY/WX    TMP DP  RH WIND       PRES   REMARKS
NORTH PLATTE   CLEAR     35  32  88 NW3       30.13S
IMPERIAL       CLOUDY    41  29  62 NW8       30.15F
LEXINGTON      CLEAR     39  35  83 W8        30.11R WCI  34
MCCOOK         CLEAR     39  35  86 W9        30.13R WCI  33
OGALLALA       CLOUDY    34  31  90 W3        30.17R
$$

NEZ005>010-023>029-035>040-094-171100-
NORTH CENTRAL NEBRASKA

CITY           SKY/WX    TMP DP  RH WIND       PRES   REMARKS
VALENTINE      CLEAR     36  31  82 W8        30.10S WCI  30
AINSWORTH      CLEAR     42  34  75 W8        30.10R
BROKEN BOW     CLEAR     44  36  73 CALM      30.09S
O`NEILL        CLEAR     45  40  81 W6        30.07S
ORD            CLEAR     40  35  83 NW9       30.07R WCI  34
$$

NEZ041-046>049-061>064-073>077-083>087-171100-
SOUTH CENTRAL NEBRASKA

CITY           SKY/WX    TMP DP  RH WIND       PRES   REMARKS
GRAND ISLAND   CLEAR     43  38  82 SW7       30.08S
AURORA         CLEAR     46  38  75 SW6       30.07S
HASTINGS       CLEAR     45  37  73 SW3       30.09S
HEBRON         CLEAR     50  40  68 SW5       30.09F
HOLDREGE       CLEAR     40  36  84 W3        30.08F
KEARNEY        CLEAR     45  36  70 NW3       30.09R
YORK           CLEAR     43  39  87 S7        30.08S
$$

NEZ011>018-030>034-042>045-171100-
NORTHEAST NEBRASKA

CITY           SKY/WX    TMP DP  RH WIND       PRES   REMARKS
NORFOLK        CLEAR     44  38  79 CALM      30.06S
ALBION         CLEAR     38  36  89 CALM      30.07R
BLAIR          CLEAR     50  41  71 S8        30.08S
COLUMBUS       CLEAR     42  37  82 SW5       30.08S
FREMONT        CLEAR     51  40  65 S5        30.09R
TEKAMAH        CLEAR     45  32  60 SE6       30.09R
WAYNE          CLEAR     41  39  91 S5        30.05S
$$

NEZ050>053-065>068-078-088>093-171100-
SOUTHEAST NEBRASKA

CITY           SKY/WX    TMP DP  RH WIND       PRES   REMARKS
LINCOLN        CLEAR     50  40  68 S8        30.10S
OMAHA EPPLEY   CLEAR     49  41  74 SE9       30.10S
BEATRICE       CLEAR     51  41  68 S9        30.11S
FALLS CITY     PTCLDY    48  40  73 S8        30.15S
NEBRASKA CITY  CLEAR     49  41  75 S8        30.12S
PLATTSMOUTH    CLEAR     49  42  75 S6        30.10S
$$

NEZ044-045-051>053-067-171100-
OMAHA AREA

CITY           SKY/WX    TMP DP  RH WIND       PRES   REMARKS
OMAHA EPPLEY   CLEAR     49  41  74 SE9       30.10S
BLAIR          CLEAR     50  41  71 S8        30.08S
FREMONT        CLEAR     51  40  65 S5        30.09R
MILLARD        CLEAR     47  42  81 SE7       30.09S
OFFUTT AFB     CLEAR     44  39  84 SE5       30.10S
PLATTSMOUTH    CLEAR     49  42  75 S6        30.10S
WAHOO          FAIR      49  39  68 S7        30.08S
$$



USA.gov is the U.S. government's official web portal to all federal, state and local government web resources and services.